Dewpoint
31 24 21 22 22 22 22 21 21 23 25 26 27 26 25 25 24 25 25 25 24 22 21 22 22 22 22 22 20 22 25 28 28 28 28 27 27 27 26 26 26 26 27 30 29 29 30 30 30 31 31 31 31 31 32 32 33 34 34 35 36 37 39 40 42 43 44 46 46 45 45 46 46 46 45 45 45 45 45 46 46 47 48 49 49 50
27 23 23 23 23 23 22 22 22 22 22 22 23 23 22 24 22 23 23 25 25 23 23 20 20 21 21 21 24 28 29 29 28 27 27 27 27 27 26 26 26 26 29 28 27 27 28 29 30 30 30 31 30 30 31 31 32 33 33 34 34 35 37 38 39 40 40 42 43 44 43 42 42 42 42 42 42 43 43 42 43 44 44 45 45 46
24 22 22 23 25 27 26 23 22 21 22 23 22 23 23 22 24 25 25 26 22 24 22 21 20 21 21 22 30 29 29 29 29 28 27 26 26 26 26 26 26 26 26 26 26 26 26 28 28 29 29 29 30 30 30 31 31 32 32 33 33 34 35 36 38 39 38 38 38 38 38 39 37 39 40 38 38 38 37 37 38 40 42 42 42 43
24 26 24 25 26 26 26 25 22 25 25 23 24 23 23 25 24 24 25 26 24 21 21 22 21 22 23 28 28 29 29 28 29 29 29 28 27 27 27 27 26 26 26 25 25 25 25 26 27 28 28 28 29 29 29 29 30 30 31 32 32 33 33 34 36 38 38 38 38 37 37 36 36 35 36 35 34 35 35 34 34 35 37 39 39 39
26 26 27 26 27 25 25 27 26 25 25 27 27 26 25 26 25 25 24 26 25 25 24 22 24 23 24 23 25 28 28 27 27 27 26 28 29 29 28 28 29 27 26 25 25 25 25 25 26 26 28 28 27 28 28 28 28 29 29 30 31 32 32 33 34 35 36 36 35 35 35 34 34 33 33 33 33 33 34 33 33 33 34 35 35 36
26 28 30 28 28 26 27 25 28 28 25 27 28 27 26 26 25 25 26 24 24 24 25 23 21 21 25 26 24 26 26 27 27 26 26 27 27 27 26 26 27 27 27 26 25 25 25 25 25 25 26 26 26 27 28 28 28 28 28 28 29 30 31 32 32 33 34 34 33 33 33 32 32 31 32 32 32 32 32 32 32 32 32 33 33 33
27 29 30 29 29 28 27 27 28 28 26 25 26 28 27 26 25 25 25 25 21 20 23 25 19 20 24 23 24 24 26 26 27 27 27 27 26 27 27 27 27 26 25 25 25 25 24 24 24 24 25 25 26 26 27 27 27 27 27 27 28 28 29 31 31 32 32 32 32 32 32 31 31 30 31 32 32 31 31 31 30 30 30 31 31 31
30 29 29 29 29 28 27 26 29 28 27 25 27 28 28 26 26 26 26 26 25 25 25 24 23 21 20 22 26 24 25 26 26 26 26 26 26 26 26 27 27 27 26 26 25 25 25 24 24 23 24 24 25 26 26 25 25 25 26 26 26 27 28 28 29 30 31 30 30 30 30 30 30 29 29 30 29 29 29 27 28 27 27 28 29 29
29 28 28 28 28 28 28 29 29 29 27 27 28 28 27 28 27 26 26 24 24 22 22 23 24 20 19 22 24 24 23 24 25 26 26 26 26 26 27 28 27 28 27 26 25 25 25 24 24 24 23 24 24 24 24 24 24 24 23 23 23 24 25 26 27 27 28 30 28 28 28 27 29 28 28 26 26 25 24 23 24 23 24 24 25 26
28 30 30 30 29 28 29 29 30 29 27 27 28 28 28 27 26 25 24 22 21 19 17 21 23 17 20 24 23 24 22 22 23 26 26 26 26 26 27 27 27 26 26 26 25 25 25 24 24 24 23 23 24 24 25 22 22 21 20 20 20 21 22 23 23 24 25 25 26 25 25 24 24 23 21 21 21 21 20 20 21 21 21 22 22 22
29 33 33 29 29 29 30 29 30 30 28 30 28 25 25 25 25 24 23 21 17 15 20 22 23 21 19 23 23 23 24 23 24 26 26 26 27 27 27 27 27 26 26 25 24 24 24 24 24 23 22 22 23 23 23 22 20 18 17 16 16 17 18 19 20 21 22 22 22 22 22 21 20 20 19 17 18 18 18 18 19 20 21 21 21 21
28 27 26 27 31 29 28 27 27 28 28 27 24 24 25 25 20 20 16 20 14 16 18 22 23 22 17 19 22 24 25 26 25 25 26 26 26 27 27 27 27 26 26 26 25 24 24 22 22 22 22 22 22 22 22 21 21 18 16 14 14 15 15 16 18 19 19 20 20 20 20 20 20 19 19 18 18 19 18 18 18 19 19 19 20 20
25 27 29 27 33 27 27 27 26 27 26 26 25 24 19 15 17 12 11 13 14 17 18 23 23 21 21 22 20 23 27 27 27 26 26 25 26 27 27 27 27 26 26 25 24 24 24 24 23 22 22 22 22 22 22 22 22 20 17 14 14 15 15 15 16 17 17 18 18 19 19 20 21 20 19 19 19 20 19 18 18 18 18 19 19 20
26 27 27 28 27 29 28 25 24 24 24 24 24 23 19 14 14 11 10 8 13 16 18 22 22 19 22 21 26 26 27 27 27 28 27 26 26 26 26 27 26 26 25 25 24 24 24 24 24 24 23 22 22 21 22 22 22 22 21 19 18 18 17 16 16 16 16 18 19 19 19 19 19 20 20 20 19 20 20 20 18 19 19 19 20 20
19 21 26 27 26 29 27 27 26 26 24 24 25 25 24 18 11 11 8 11 15 16 16 19 16 15 16 17 26 26 27 27 27 27 27 27 27 26 26 26 25 24 24 24 24 24 25 25 24 23 22 22 21 21 21 21 21 21 21 21 21 21 22 19 17 17 17 17 18 19 20 20 19 19 20 21 22 20 20 20 19 19 20 20 20 21
25 24 25 28 28 28 27 28 27 26 25 24 25 25 20 22 21 15 14 10 9 12 13 15 17 19 20 24 27 26 26 26 27 27 27 26 26 26 25 24 24 24 24 24 24 24 24 25 24 24 22 21 21 21 21 21 21 20 21 21 21 22 23 23 21 19 18 18 18 18 18 20 21 21 19 21 21 21 21 21 21 20 20 20 21 21
22 22 26 29 27 26 27 29 27 27 23 24 24 20 25 25 22 16 17 17 15 12 19 11 21 24 23 24 25 25 25 25 25 25 25 25 25 24 23 23 23 24 24 24 24 24 24 24 24 24 22 22 21 20 21 21 20 20 20 19 19 20 20 22 24 22 21 19 18 19 18 18 19 18 17 18 19 19 21 21 21 21 21 21 20 21
23 23 27 27 26 28 27 28 28 29 28 24 20 23 27 28 26 21 16 11 9 15 14 17 18 20 19 19 23 23 24 24 24 24 24 24 24 23 23 23 23 24 24 24 24 24 24 24 24 24 23 21 21 21 21 22 22 22 21 19 18 19 18 20 20 22 22 21 20 19 19 19 19 19 19 18 18 19 18 18 18 19 20 20 20 21
26 21 25 28 27 28 28 27 27 28 29 25 25 28 23 19 18 23 17 14 13 12 10 15 19 19 19 19 22 22 24 24 24 24 24 23 23 22 22 23 23 24 24 24 24 24 24 24 25 24 22 22 23 22 21 22 22 22 21 21 20 19 20 20 21 19 20 21 22 21 20 19 19 19 19 19 18 17 18 18 18 17 18 19 19 20
27 20 24 28 28 28 27 27 24 25 28 30 29 26 28 25 22 18 21 17 17 12 13 13 16 19 21 20 22 22 24 25 24 24 23 23 23 22 21 22 23 24 24 24 24 24 24 25 25 24 24 24 23 23 22 22 21 20 21 20 20 20 20 19 19 19 18 20 19 19 18 18 19 19 18 19 18 15 17 18 19 18 18 20 19 20
27 26 19 25 28 27 24 26 25 26 26 25 25 25 25 22 26 26 22 21 19 15 17 17 16 21 23 23 23 22 24 25 24 24 24 24 23 22 22 22 23 24 24 24 24 24 25 25 25 26 26 26 26 26 24 20 18 20 20 18 18 17 18 18 19 19 19 18 18 17 16 16 17 17 18 15 18 16 17 17 19 18 20 19 17 19
27 26 24 26 26 25 26 28 27 28 28 27 26 25 25 24 21 21 22 25 22 22 20 20 19 22 26 27 25 24 24 25 25 25 24 24 23 23 23 23 23 24 23 24 24 24 25 24 25 26 27 27 26 24 21 21 20 18 18 19 19 19 17 16 17 18 18 19 18 17 17 17 18 19 18 16 18 17 18 17 17 18 19 17 17 18
30 30 27 24 25 27 29 31 31 32 33 31 28 27 28 28 26 23 21 24 23 23 25 23 21 24 26 27 27 27 25 25 25 25 24 24 24 23 23 23 23 23 23 24 24 24 25 25 25 26 26 26 25 25 22 22 19 18 17 18 19 17 15 17 16 19 19 17 15 15 16 17 16 16 15 13 15 15 15 17 17 19 18 17 17 18
35 30 27 29 30 32 31 31 34 32 31 29 28 29 27 26 27 26 25 25 23 22 22 21 22 26 29 30 25 25 24 25 25 25 24 24 24 24 23 23 23 23 23 24 24 25 25 24 25 25 25 25 25 24 23 22 19 18 18 18 18 16 15 17 18 19 18 16 14 14 14 13 14 13 14 13 13 14 15 16 17 18 18 17 17 17
30 31 31 27 27 29 30 31 32 32 31 29 27 28 29 29 28 27 25 24 23 25 25 22 21 23 31 29 27 24 24 24 24 25 25 24 25 24 24 24 23 23 23 24 24 24 24 24 24 24 25 25 24 24 23 22 20 18 17 18 18 16 16 17 18 18 17 14 13 14 13 12 14 13 13 13 13 13 14 15 16 17 17 16 16 16
32 32 31 27 25 23 23 22 23 27 29 29 29 27 28 27 25 24 21 23 24 25 25 22 23 26 26 26 25 25 27 24 24 24 23 24 23 24 24 24 24 23 23 23 23 23 23 24 24 24 24 24 24 23 22 21 20 19 17 17 17 16 17 17 18 16 16 15 12 13 14 13 13 13 13 13 13 14 14 15 15 15 15 15 15 15
33 32 33 32 30 28 28 25 26 29 26 27 26 26 26 26 26 26 24 22 23 24 25 26 26 24 24 24 25 25 23 23 23 22 23 23 24 24 24 24 24 24 23 23 22 22 22 23 23 24 24 24 23 22 21 20 20 19 18 17 17 17 16 17 17 16 15 15 13 14 14 13 13 13 13 14 14 15 15 15 15 15 15 15 15 14
31 31 32 32 32 32 29 26 26 29 26 25 25 24 25 24 23 24 23 22 25 22 21 25 25 23 24 24 24 24 24 24 24 24 25 25 24 24 24 24 28 23 23 22 21 21 21 21 22 23 23 23 22 21 20 20 19 18 18 17 17 17 17 18 16 14 14 14 13 14 15 15 14 15 15 15 15 15 15 15 15 15 15 14 13 12
31 31 32 30 30 28 27 26 27 27 27 27 25 25 24 25 22 22 21 24 23 22 20 22 23 22 23 24 24 24 24 24 24 24 25 25 25 24 24 24 24 23 22 21 20 20 20 20 21 21 22 21 20 19 18 19 18 18 18 17 17 18 17 17 16 14 14 14 14 14 14 14 16 15 14 15 14 14 13 13 12 11 10 9 8 9
32 29 27 28 27 26 26 26 25 26 24 23 24 25 26 25 23 24 22 23 24 23 22 22 22 20 20 20 19 21 24 23 22 22 23 23 24 24 24 24 24 23 21 20 20 19 19 19 19 19 20 19 18 17 16 17 17 17 17 17 18 18 18 17 15 14 14 14 14 14 14 14 14 14 13 13 12 11 10 9 8 8 7 7 7 7
32 27 29 25 26 25 21 24 24 25 23 24 24 24 24 22 22 23 24 23 22 20 20 20 19 19 21 21 21 21 22 23 23 23 23 24 24 24 24 23 22 21 20 20 19 18 18 18 17 17 17 17 17 16 16 16 16 16 16 18 19 19 19 16 15 14 14 14 14 13 12 12 12 12 11 10 9 9 7 7 7 7 7 7 7 6
29 27 22 23 24 22 19 23 21 19 19 19 20 21 19 19 20 21 21 21 21 20 20 18 16 19 21 20 22 22 22 22 22 23 23 24 24 23 22 22 20 19 18 17 17 17 16 16 16 15 15 15 16 16 16 16 17 17 17 20 19 17 15 14 14 13 13 13 12 11 11 11 9 8 7 7 7 6 6 6 5 5 6 5 5 5
28 25 22 20 23 20 18 18 17 16 18 18 19 18 17 19 20 20 19 21 21 21 17 16 18 21 20 20 17 18 21 21 20 21 23 22 22 23 22 21 21 20 18 17 16 17 16 16 16 16 16 15 15 16 16 17 17 17 19 17 15 14 13 12 12 12 11 10 10 10 10 8 6 5 5 5 4 4 4 4 4 3 3 3 4 4
27 26 23 24 22 15 15 16 16 14 12 17 16 20 18 16 16 16 16 15 16 18 18 19 18 15 13 15 16 15 17 19 20 20 21 22 21 22 22 22 22 22 21 21 21 20 19 19 18 18 17 18 18 17 17 18 18 18 16 14 13 12 10 10 9 9 8 8 9 9 6 4 3 2 2 2 3 3 2 2 1 1 2 2 3 3
25 26 23 20 18 14 13 15 14 12 15 18 16 18 14 13 13 14 13 11 11 15 16 14 15 16 17 17 17 17 18 14 13 15 13 13 20 21 19 19 18 20 21 21 20 21 21 20 19 18 18 17 18 18 18 17 15 14 13 11 10 9 8 7 7 7 7 8 7 4 3 2 1 1 1 1 1 1 -0 -0 -0 0 1 1 2 1
25 24 22 19 17 16 14 16 12 12 18 15 14 15 17 14 13 12 10 11 13 13 14 14 15 16 17 19 17 12 12 7 10 13 13 13 13 12 11 12 12 14 14 14 14 15 17 18 18 17 17 20 17 15 14 14 13 11 10 8 8 7 6 5 6 7 8 6 3 1 1 0 0 -0 -1 0 -1 -2 -1 -1 -1 -1 -0 0 0 0
26 23 23 21 22 16 16 15 17 18 18 19 17 11 10 9 13 10 6 7 8 12 16 16 16 17 18 18 11 10 13 10 8 9 13 14 16 15 12 11 12 13 13 14 14 14 16 17 18 18 19 17 14 12 12 12 10 9 7 6 6 5 5 4 4 7 6 3 1 1 -0 -0 -1 -2 -2 -2 -2 -3 -3 -2 -2 -2 -1 -2 -1 -1
25 25 24 22 18 21 14 16 13 11 14 16 19 15 15 12 15 14 8 8 12 8 15 17 17 17 15 8 8 12 10 8 8 10 11 12 15 16 16 17 16 15 15 15 17 17 17 19 19 18 16 12 11 10 9 8 7 6 5 5 4 3 4 3 4 5 2 1 0 -0 -1 -1 -3 -3 -3 -4 -4 -4 -2 -3 -3 -3 -2 -2 -3 -2
25 24 24 23 20 14 13 15 14 13 13 18 18 12 14 13 14 11 5 5 13 11 14 18 16 13 13 10 9 11 9 5 10 11 12 12 13 15 15 15 16 16 16 16 17 17 19 19 17 14 11 10 9 8 6 5 5 5 4 4 3 2 1 2 4 1 -1 -1 -1 -1 -2 -3 -3 -4 -5 -5 -4 -5 -4 -4 -4 -3 -3 -3 -3 -3
23 20 21 20 18 18 17 14 14 14 13 13 8 10 13 14 12 11 -4 -1 6 12 13 16 15 13 13 11 11 12 12 8 12 12 13 13 12 13 14 14 15 17 18 20 19 19 19 15 11 10 10 9 8 6 5 3 3 3 3 3 2 0 0 3 1 -1 -1 -1 -2 -2 -3 -4 -4 -5 -6 -4 -4 -5 -4 -4 -4 -5 -4 -4 -4 -4
21 18 21 18 21 21 21 16 10 12 15 11 11 12 14 14 10 -0 -4 5 9 12 14 15 15 15 13 11 12 10 13 13 12 12 13 13 11 12 14 15 15 15 16 18 19 22 15 12 12 11 10 9 6 4 3 2 3 2 2 2 -0 -2 1 -0 -1 -2 -2 -2 -3 -4 -5 -6 -6 -6 -6 -6 -5 -4 -5 -5 -4 -4 -6 -6 -5 -5
15 18 16 18 16 17 16 15 14 14 14 13 13 14 15 7 1 3 13 14 13 13 15 15 15 14 13 11 11 12 12 13 13 13 12 12 11 10 11 12 14 17 18 18 20 18 14 11 10 9 8 7 5 3 2 1 2 1 1 -1 -3 -2 -1 -2 -2 -2 -4 -5 -5 -6 -7 -9 -8 -7 -7 -7 -7 -7 -6 -6 -6 -6 -6 -5 -6 -7
13 14 12 17 17 14 12 11 8 6 11 15 14 12 12 6 10 15 13 11 15 15 15 15 16 15 13 12 12 12 12 11 11 11 11 12 12 10 10 11 13 14 15 17 18 16 12 10 9 8 8 6 4 2 1 -1 -1 -1 -1 -3 -3 -1 -2 -2 -3 -3 -4 -6 -7 -8 -9 -9 -9 -8 -9 -9 -8 -8 -8 -7 -7 -8 -8 -8 -8 -8
14 7 4 13 18 7 12 9 9 13 15 16 15 12 12 16 17 17 15 10 14 15 16 15 15 16 14 13 12 12 11 11 10 11 12 12 12 12 12 12 12 13 15 16 16 15 12 10 9 8 6 4 2 0 1 -1 -2 -2 -3 -4 -2 -1 -3 -4 -5 -6 -7 -8 -9 -10 -10 -10 -10 -9 -10 -9 -8 -9 -9 -9 -9 -9 -9 -8 -7 -8
9 12 11 7 13 10 9 13 15 15 16 17 15 15 15 16 17 16 13 13 13 14 15 15 14 14 15 13 12 12 11 11 10 10 11 11 11 12 12 12 12 13 14 15 14 13 12 11 9 7 4 3 1 -1 -3 -4 -3 -3 -5 -4 -1 -2 -5 -6 -8 -8 -9 -11 -12 -13 -13 -13 -11 -12 -11 -11 -10 -10 -8 -8 -10 -8 -10 -9 -8 -8
10 13 11 10 7 9 11 15 15 11 15 16 17 17 16 16 17 16 15 13 14 15 16 14 14 13 13 14 13 12 11 11 11 11 11 11 12 12 12 12 12 12 14 13 10 11 11 8 6 5 4 1 -1 -2 -3 -5 -4 -6 -5 -4 -4 -6 -7 -9 -10 -11 -11 -13 -13 -12 -13 -13 -11 -11 -10 -10 -9 -9 -8 -8 -8 -8 -8 -8 -8 -9
8 10 7 7 10 2 2 11 8 9 12 16 16 17 17 16 17 17 16 16 14 15 16 15 14 13 13 13 13 12 11 11 11 11 12 12 12 12 12 12 12 12 14 13 13 9 7 5 5 4 3 2 -1 -2 -3 -6 -6 -6 -6 -5 -4 -6 -9 -12 -11 -10 -11 -12 -12 -13 -14 -13 -11 -10 -10 -11 -9 -9 -8 -8 -8 -9 -8 -9 -9 -9
7 9 6 7 6 5 4 6 8 10 11 13 15 15 15 16 15 15 16 16 15 13 14 15 15 15 14 12 13 12 11 11 12 12 12 12 13 13 13 13 12 12 13 13 11 8 6 6 7 5 3 3 0 -2 -4 -6 -6 -7 -8 -8 -6 -10 -12 -11 -11 -12 -13 -14 -15 -12 -13 -12 -8 -7 -9 -9 -10 -9 -9 -9 -9 -9 -9 -9 -8 -7
7 10 2 6 6 6 7 9 9 8 8 10 10 12 15 15 14 13 13 13 13 13 13 14 16 15 15 15 14 14 13 13 13 13 13 13 13 13 13 13 13 13 12 10 7 6 8 6 6 4 2 1 -1 -3 -5 -7 -8 -10 -8 -6 -10 -12 -12 -11 -10 -12 -14 -14 -14 -13 -11 -11 -11 -10 -10 -10 -11 -10 -9 -9 -8 -8 -7 -5 -4 -4
8 8 9 6 4 3 4 5 7 2 5 7 8 9 10 11 11 11 10 10 11 12 13 13 13 15 15 16 15 15 15 15 15 15 15 14 14 14 14 13 13 12 10 9 6 5 5 3 4 1 -0 -2 -3 -4 -6 -8 -9 -10 -7 -10 -11 -12 -13 -12 -13 -14 -15 -14 -15 -14 -13 -12 -12 -13 -10 -10 -10 -10 -10 -4 7 5 2 2 8 12
7 7 8 8 7 7 8 7 8 7 6 8 8 8 8 9 9 10 9 9 10 10 11 11 12 12 13 14 15 15 15 15 15 15 15 15 15 15 14 13 12 12 10 6 4 1 3 2 -1 -3 -4 -4 -5 -6 -7 -8 -10 -11 -11 -9 -9 -11 -12 -13 -12 -13 -13 -14 -13 -11 -11 -12 -11 -11 -11 -10 -10 -10 -9 -9 -7 4 9 11 11 12